Location: Dead Woman Crossing
(43.5369°N, 106.3228°W)
Time: 02:23:04
(UTC+00:00)

UWE-3 - Pass Details

Date: 02 July 2022
Orbit: 583 x 677 km, 97.7° (Epoch: 16 August)

Event Time Altitude Azimuth Distance (km) Brightness Sun altitude
Rises 10:39:33 0° 11° (N) 2,896 ? -7.8°
Reaches altitude 10° 10:41:43 10° 10° (N) 2,000 ? -7.6°
Maximum altitude 10:46:04 79° 285° (WNW) 653 ? -7.0°
Drops below altitude 10° 10:50:32 10° 199° (SSW) 2,043 ? -6.4°
Enters shadow 10:52:03 - 198° (SSW) 2,672 ? -6.1°
